ONEWEB-0207, 48242

Orbit data source: Space-Track

ONEWEB-0207, 48242 is a payload satellite owned by One Web (NAA) (UK) in LEO that was launched on Sun, 25 Apr 2021 UTC via a SOYUZ-2-1B launch vehicle from the Vostochny Cosmodrome (VOSTO). Payload-class satellites include a variety of spacecraft equipped with specific instruments for various scientific and technological missions. These include communications satellites like Starlink; space stations such as the ISS; scientific satellites like the Hubble; Earth observation satellites from companies like Planet Labs, Umbra, and HawkEye 360; GPS; miniature CubeSats for education and research; and military/defense satellites.

Loading next visibility...
Identifier
48242, 2021-031AJ
Orbit
LEO
Country
Flag of UKUK
Related business
Manufacturer
One Web
Mission
Operational Commercial Communications
Bus & Motor
ARROW, Unknown motor
Mass
148 kg wet, ~140 kg dry
Launch date (UTC)
2021-04-25 (5 years ago)
Launch vehicle
SOYUZ-2-1B
Launch site
Vostochny Cosmodrome (VOSTO)
Object type
Payload
Rocket body
Debris
Shape & HBR
Trap Box + 2 Pan, 6.7 m
Radar Cross Section
3.464 m², Large (>1 m²)

Expand to show TLE details & history
Last TLE update: 1 day ago

TLE from 1 day ago
0 ONEWEB-0207
1 48242U 21031AJ  25306.49942500 -.00000197  00000-0 -56627-3 0  9994
2 48242  87.9006 334.8486 0001722  88.6242 271.5085 13.14504261218512
Epoch: 2025-11-02T11:59Z
TLE epoch observation values (Epoch: 2025-11-02T11:59:10.320Z)
Latitude
0.00001°
Longitude
113.04133°
Altitude
1,208.644 km
Speed
7.25 km/s
True Right ascension
22h 19m 23s
True Declination
0° 00' 00"
Sunlit
Object was in daylight at epoch
Visualization orbit readout
Latitude
Unknown
Longitude
Unknown
Altitude
Unknown
Speed
Unknown
Apparent Right ascension
Unknown
Apparent Declination
Unknown
Sunlit
N/A
Visualization observer readout
Local Sidereal Time
09:25:50
Azimuth
Unknown
Elevation
Unknown
Doppler factor
Unknown
Orbital elements
Apogee altitude
1,204.204 km
Perigee altitude
1,201.593 km
Semi-major axis
7,581.035 km
Eccentricity
0.00017
Inclination
87.9006°
RAAN
334.8486°
Arg. of periapsis
88.6242°
True anomaly
271.48877°
Mean anomaly
271.5085°
Eccentric anomaly
271.49864°
Mean motion
3.28814 °/min
Orbital period
109.48 mins
BSTAR
-0.00056627
Loading maneuver chart data...
Computing Atmospheric mass density...
Loading historical data...
Loading historical data...
Loading historical data...
Loading historical data...
Loading historical data...
Loading historical data...
Loading historical data...

Documentation

Showing up to 5 results
|